TimeCST,TemperatureF,Dew PointF,Humidity,Sea Level PressureIn,VisibilityMPH,Wind Direction,Wind SpeedMPH,Gust SpeedMPH,PrecipitationIn,Events,Conditions,WindDirDegrees,DateUTC
12:15 AM,39.7,25.7,57,29.78,10.0,SSE,18.4,23.0,N/A,,Clear,160,2013-02-18 06:15:00
12:35 AM,39.7,26.6,59,29.77,10.0,SSE,18.4,23.0,N/A,,Clear,150,2013-02-18 06:35:00
12:55 AM,39.9,27.1,60,29.76,10.0,SSE,16.1,21.9,N/A,,Clear,150,2013-02-18 06:55:00
1:15 AM,39.9,27.3,61,29.75,10.0,SSE,13.8,-,N/A,,Clear,150,2013-02-18 07:15:00
1:35 AM,39.7,27.9,63,29.74,10.0,SSE,16.1,20.7,N/A,,Clear,150,2013-02-18 07:35:00
1:55 AM,40.1,28.2,63,29.73,10.0,SSE,16.1,20.7,N/A,,Clear,160,2013-02-18 07:55:00
2:15 AM,40.1,28.4,63,29.73,10.0,SSE,16.1,20.7,N/A,,Clear,160,2013-02-18 08:15:00
2:35 AM,40.1,28.4,63,29.72,10.0,SSE,15.0,-,N/A,,Clear,160,2013-02-18 08:35:00
2:55 AM,40.1,28.8,64,29.70,10.0,SSE,13.8,-,N/A,,Clear,160,2013-02-18 08:55:00
3:15 AM,40.3,28.9,64,29.69,10.0,SSE,15.0,-,N/A,,Clear,160,2013-02-18 09:15:00
3:35 AM,40.1,29.1,65,29.68,10.0,SSE,13.8,-,N/A,,Clear,160,2013-02-18 09:35:00
3:55 AM,40.1,29.3,65,29.67,10.0,SSE,15.0,-,N/A,,Clear,160,2013-02-18 09:55:00
4:15 AM,40.1,29.3,65,29.66,10.0,SSE,13.8,-,N/A,,Clear,160,2013-02-18 10:15:00
4:35 AM,40.1,29.7,66,29.65,10.0,SSE,12.7,-,N/A,,Clear,150,2013-02-18 10:35:00
4:55 AM,40.1,29.7,66,29.65,10.0,SSE,12.7,-,N/A,,Clear,150,2013-02-18 10:55:00
5:15 AM,40.1,30.0,67,29.65,10.0,SSE,11.5,-,N/A,,Clear,160,2013-02-18 11:15:00
5:35 AM,40.1,30.0,67,29.64,10.0,SSE,10.4,-,N/A,,Clear,160,2013-02-18 11:35:00
5:55 AM,40.1,30.2,68,29.64,10.0,SSE,11.5,-,N/A,,Clear,160,2013-02-18 11:55:00
6:15 AM,40.1,30.2,68,29.64,10.0,South,10.4,-,N/A,,Clear,170,2013-02-18 12:15:00
6:35 AM,40.1,30.2,68,29.63,10.0,SSE,10.4,-,N/A,,Clear,160,2013-02-18 12:35:00
6:55 AM,40.5,30.2,67,29.63,10.0,SSE,10.4,-,N/A,,Clear,160,2013-02-18 12:55:00
7:15 AM,40.8,30.7,67,29.63,10.0,SSE,9.2,-,N/A,,Clear,160,2013-02-18 13:15:00
7:35 AM,41.7,30.9,66,29.62,10.0,SSE,10.4,-,N/A,,Clear,160,2013-02-18 13:35:00
7:55 AM,43.2,31.1,62,29.62,10.0,South,11.5,-,N/A,,Clear,170,2013-02-18 13:55:00
8:15 AM,44.8,31.5,60,29.62,10.0,South,13.8,-,N/A,,Clear,170,2013-02-18 14:15:00
8:35 AM,46.6,31.8,56,29.62,10.0,South,12.7,-,N/A,,Clear,170,2013-02-18 14:35:00
8:55 AM,49.1,32.0,52,29.62,10.0,South,15.0,21.9,N/A,,Clear,180,2013-02-18 14:55:00
9:15 AM,51.3,32.0,48,29.62,10.0,South,17.3,-,N/A,,Clear,180,2013-02-18 15:15:00
9:35 AM,51.4,32.0,47,29.61,10.0,South,19.6,24.2,N/A,,Clear,190,2013-02-18 15:35:00
9:55 AM,53.4,32.7,45,29.60,10.0,South,17.3,-,N/A,,Clear,180,2013-02-18 15:55:00
10:15 AM,54.1,33.1,45,29.60,10.0,South,13.8,-,N/A,,Scattered Clouds,190,2013-02-18 16:15:00
10:35 AM,57.4,34.2,42,29.59,10.0,SSW,18.4,24.2,N/A,,Scattered Clouds,200,2013-02-18 16:35:00
10:55 AM,59.7,35.1,40,29.58,10.0,SSW,23.0,28.8,N/A,,Scattered Clouds,200,2013-02-18 16:55:00
11:15 AM,59.7,35.2,40,29.57,10.0,SSW,20.7,27.6,N/A,,Scattered Clouds,210,2013-02-18 17:15:00
11:35 AM,60.1,35.8,40,29.56,10.0,SSW,25.3,33.4,N/A,,Scattered Clouds,200,2013-02-18 17:35:00
11:55 AM,59.0,36.9,44,29.56,10.0,SSW,18.4,26.5,N/A,,Mostly Cloudy,200,2013-02-18 17:55:00
12:15 PM,58.3,37.8,46,29.55,10.0,SSW,18.4,26.5,N/A,,Overcast,210,2013-02-18 18:15:00
12:35 PM,58.1,37.8,47,29.54,10.0,SSW,17.3,29.9,N/A,,Overcast,200,2013-02-18 18:35:00
12:55 PM,57.6,38.1,48,29.53,10.0,South,19.6,25.3,N/A,,Overcast,190,2013-02-18 18:55:00
1:15 PM,56.8,39.0,51,29.52,10.0,South,13.8,-,N/A,,Light Drizzle,190,2013-02-18 19:15:00
1:35 PM,53.8,37.2,54,29.53,7.0,West,13.8,18.4,N/A,Rain,Rain,280,2013-02-18 19:35:00
1:55 PM,48.6,36.9,64,29.54,5.0,WNW,8.1,-,N/A,,Light Drizzle,290,2013-02-18 19:55:00
2:15 PM,46.6,36.7,68,29.54,7.0,WNW,12.7,-,N/A,Rain,Light Rain,290,2013-02-18 20:15:00
2:35 PM,44.6,36.1,72,29.55,2.5,WNW,12.7,23.0,0.01,Rain,Rain,300,2013-02-18 20:35:00
2:55 PM,43.7,36.0,74,29.55,4.0,WNW,13.8,23.0,0.04,Rain,Rain,300,2013-02-18 20:55:00
3:15 PM,43.0,35.4,75,29.55,3.0,NW,16.1,20.7,0.03,Rain,Heavy Rain,310,2013-02-18 21:15:00
3:35 PM,42.3,35.1,76,29.55,5.0,NW,18.4,23.0,0.04,Rain,Rain,310,2013-02-18 21:35:00
3:55 PM,40.6,33.8,77,29.56,4.0,NW,16.1,24.2,0.05,Rain,Light Rain,320,2013-02-18 21:55:00
4:15 PM,40.3,33.8,78,29.58,3.0,NW,16.1,23.0,N/A,Rain,Light Rain,320,2013-02-18 22:15:00
4:35 PM,39.0,32.9,79,29.59,2.0,NW,13.8,20.7,0.01,,Unknown,310,2013-02-18 22:35:00
4:55 PM,38.3,32.2,79,29.59,2.5,NW,11.5,20.7,0.01,,Unknown,310,2013-02-18 22:55:00
5:15 PM,37.6,32.0,80,29.61,1.2,WNW,13.8,24.2,0.01,Snow,Light Snow,300,2013-02-18 23:15:00
5:35 PM,36.7,31.5,81,29.62,1.8,WNW,23.0,31.1,0.01,Snow,Light Snow,300,2013-02-18 23:35:00
5:55 PM,36.5,29.1,75,29.64,4.0,WNW,18.4,29.9,0.01,Snow,Light Snow,300,2013-02-18 23:55:00
6:15 PM,35.6,26.4,69,29.66,10.0,NW,23.0,31.1,N/A,,Overcast,310,2013-02-19 00:15:00
6:35 PM,34.7,26.4,72,29.68,10.0,WNW,21.9,29.9,N/A,,Overcast,300,2013-02-19 00:35:00
6:55 PM,34.2,23.7,66,29.70,10.0,WNW,27.6,36.8,N/A,,Overcast,300,2013-02-19 00:55:00
7:15 PM,32.9,22.3,65,29.72,10.0,WNW,24.2,31.1,N/A,,Overcast,300,2013-02-19 01:15:00
7:35 PM,32.2,21.2,64,29.73,10.0,WNW,20.7,31.1,N/A,,Overcast,300,2013-02-19 01:35:00
7:55 PM,32.2,21.4,64,29.73,10.0,WNW,17.3,28.8,N/A,,Overcast,290,2013-02-19 01:55:00
8:15 PM,32.0,20.1,62,29.74,10.0,WNW,19.6,31.1,N/A,,Overcast,300,2013-02-19 02:15:00
8:35 PM,31.1,17.4,57,29.76,10.0,WNW,26.5,39.1,N/A,,Overcast,300,2013-02-19 02:35:00
8:55 PM,30.2,17.6,60,29.77,10.0,WNW,19.6,29.9,N/A,,Overcast,300,2013-02-19 02:55:00
9:15 PM,30.2,18.3,61,29.78,10.0,WNW,17.3,31.1,N/A,,Overcast,300,2013-02-19 03:15:00
9:35 PM,30.0,18.1,61,29.79,10.0,WNW,19.6,25.3,N/A,,Overcast,300,2013-02-19 03:35:00
9:55 PM,30.0,16.7,58,29.80,10.0,WNW,23.0,32.2,N/A,,Overcast,300,2013-02-19 03:55:00
10:15 PM,30.0,17.1,59,29.81,10.0,West,15.0,26.5,N/A,,Overcast,280,2013-02-19 04:15:00
10:35 PM,29.5,16.3,58,29.81,10.0,West,17.3,32.2,N/A,,Overcast,270,2013-02-19 04:35:00
10:55 PM,28.4,15.1,57,29.83,10.0,NW,17.3,33.4,N/A,,Overcast,310,2013-02-19 04:55:00
11:15 PM,27.1,13.8,57,29.83,10.0,West,19.6,27.6,N/A,,Mostly Cloudy,280,2013-02-19 05:15:00
11:35 PM,25.9,10.8,53,29.85,10.0,WNW,21.9,38.0,N/A,,Mostly Cloudy,290,2013-02-19 05:35:00
11:55 PM,24.6,11.3,57,29.86,10.0,WNW,18.4,27.6,N/A,,Scattered Clouds,290,2013-02-19 05:55:00